TimeCDT,TemperatureF,Dew PointF,Humidity,Sea Level PressureIn,VisibilityMPH,Wind Direction,Wind SpeedMPH,Gust SpeedMPH,PrecipitationIn,Events,Conditions,WindDirDegrees,DateUTC
12:15 AM,79.0,73.4,83,29.74,5.0,ESE,10.4,16.1,N/A,,Haze,120,2013-05-21 05:15:00
12:35 AM,78.8,73.4,83,29.74,5.0,SE,13.8,-,N/A,,Haze,130,2013-05-21 05:35:00
12:55 AM,78.8,73.4,83,29.75,5.0,SSE,9.2,-,N/A,,Haze,150,2013-05-21 05:55:00
1:15 AM,79.3,73.4,82,29.75,5.0,SSE,10.4,18.4,N/A,,Haze,160,2013-05-21 06:15:00
1:35 AM,79.9,73.4,80,29.75,5.0,SSE,9.2,-,N/A,,Haze,160,2013-05-21 06:35:00
1:55 AM,80.1,73.4,80,29.75,5.0,SSE,11.5,-,N/A,,Haze,150,2013-05-21 06:55:00
2:15 AM,80.2,73.4,80,29.74,5.0,SE,11.5,16.1,N/A,,Haze,140,2013-05-21 07:15:00
2:35 AM,80.4,73.4,79,29.73,5.0,SSE,11.5,-,N/A,,Haze,150,2013-05-21 07:35:00
2:55 AM,80.2,73.4,80,29.71,5.0,SE,13.8,-,N/A,,Haze,140,2013-05-21 07:55:00
3:15 AM,80.6,73.4,79,29.71,5.0,SE,12.7,-,N/A,,Haze,130,2013-05-21 08:15:00
3:35 AM,80.6,73.4,79,29.71,4.0,SE,11.5,-,N/A,,Haze,130,2013-05-21 08:35:00
3:55 AM,80.6,73.4,79,29.72,5.0,SE,12.7,17.3,N/A,,Haze,130,2013-05-21 08:55:00
4:15 AM,80.6,73.4,79,29.72,5.0,SE,11.5,-,N/A,,Haze,140,2013-05-21 09:15:00
4:35 AM,80.6,73.4,79,29.72,5.0,SE,15.0,-,N/A,,Haze,130,2013-05-21 09:35:00
4:55 AM,80.6,72.9,77,29.73,5.0,SSE,10.4,-,N/A,,Haze,150,2013-05-21 09:55:00
5:15 AM,81.1,72.0,74,29.73,5.0,SSE,11.5,17.3,N/A,,Haze,150,2013-05-21 10:15:00
5:35 AM,81.1,71.6,73,29.73,5.0,SSE,11.5,17.3,N/A,,Haze,150,2013-05-21 10:35:00
5:55 AM,80.6,72.1,75,29.73,5.0,SE,11.5,-,N/A,,Haze,140,2013-05-21 10:55:00
6:15 AM,80.6,72.1,75,29.74,5.0,SE,11.5,-,N/A,,Haze,140,2013-05-21 11:15:00
6:35 AM,81.0,71.2,72,29.74,5.0,SSE,11.5,-,N/A,,Haze,150,2013-05-21 11:35:00
6:55 AM,80.8,71.6,73,29.74,4.0,SE,11.5,18.4,N/A,,Haze,140,2013-05-21 11:55:00
7:15 AM,80.6,71.8,74,29.75,4.0,SE,11.5,17.3,N/A,,Haze,140,2013-05-21 12:15:00
7:35 AM,80.8,71.6,73,29.75,4.0,SSE,12.7,-,N/A,,Haze,150,2013-05-21 12:35:00
7:55 AM,81.5,71.8,72,29.75,4.0,SE,15.0,23.0,N/A,,Haze,140,2013-05-21 12:55:00
8:15 AM,81.9,71.6,71,29.75,4.0,SE,17.3,-,N/A,,Haze,140,2013-05-21 13:15:00
8:35 AM,82.4,72.1,71,29.76,4.0,SSE,18.4,24.2,N/A,,Haze,150,2013-05-21 13:35:00
8:55 AM,82.4,72.5,72,29.77,4.0,SSE,17.3,23.0,N/A,,Haze,150,2013-05-21 13:55:00
9:15 AM,82.8,72.9,72,29.77,4.0,SSE,17.3,25.3,N/A,,Haze,150,2013-05-21 14:15:00
9:35 AM,83.3,72.9,71,29.77,4.0,SE,16.1,25.3,N/A,,Haze,140,2013-05-21 14:35:00
9:55 AM,84.6,73.0,68,29.76,3.0,SE,20.7,26.5,N/A,,Haze,140,2013-05-21 14:55:00
10:15 AM,86.2,72.5,64,29.76,3.0,SSE,24.2,29.9,N/A,,Haze,150,2013-05-21 15:15:00
10:35 AM,86.5,71.4,61,29.76,3.0,SSE,17.3,28.8,N/A,,Haze,150,2013-05-21 15:35:00
10:55 AM,87.1,72.0,61,29.76,4.0,SSE,20.7,26.5,N/A,,Haze,150,2013-05-21 15:55:00
11:15 AM,87.6,71.8,59,29.76,4.0,SE,20.7,25.3,N/A,,Haze,140,2013-05-21 16:15:00
11:35 AM,88.3,71.6,57,29.76,4.0,SSE,23.0,27.6,N/A,,Haze,160,2013-05-21 16:35:00
11:55 AM,90.1,71.4,54,29.75,5.0,SSE,20.7,27.6,N/A,,Haze,150,2013-05-21 16:55:00
12:15 PM,91.2,70.9,51,29.75,4.0,SSE,17.3,26.5,N/A,,Haze,160,2013-05-21 17:15:00
12:35 PM,91.6,70.9,51,29.75,4.0,SSE,18.4,25.3,N/A,,Haze,160,2013-05-21 17:35:00
12:55 PM,92.1,70.5,49,29.73,5.0,SE,18.4,23.0,N/A,,Haze,140,2013-05-21 17:55:00
1:15 PM,93.2,70.0,47,29.73,5.0,SSE,17.3,26.5,N/A,,Haze,160,2013-05-21 18:15:00
1:35 PM,93.6,69.8,46,29.72,5.0,SSE,16.1,27.6,N/A,,Haze,150,2013-05-21 18:35:00
1:55 PM,94.1,70.0,45,29.72,5.0,South,17.3,29.9,N/A,,Haze,170,2013-05-21 18:55:00
2:15 PM,94.5,69.8,45,29.71,5.0,SSE,19.6,24.2,N/A,,Haze,150,2013-05-21 19:15:00
2:35 PM,95.5,70.0,43,29.71,7.0,South,16.1,25.3,N/A,,Scattered Clouds,170,2013-05-21 19:35:00
2:55 PM,95.4,69.4,43,29.70,7.0,SSE,17.3,24.2,N/A,,Clear,160,2013-05-21 19:55:00
3:15 PM,95.4,69.3,42,29.69,5.0,SSE,16.1,24.2,N/A,,Haze,150,2013-05-21 20:15:00
3:35 PM,95.0,69.3,43,29.69,7.0,SE,13.8,20.7,N/A,,Clear,140,2013-05-21 20:35:00
3:55 PM,94.6,69.4,44,29.69,5.0,SE,13.8,20.7,N/A,,Haze,140,2013-05-21 20:55:00
4:15 PM,95.4,69.1,42,29.68,7.0,SE,16.1,23.0,N/A,,Clear,140,2013-05-21 21:15:00
4:35 PM,95.0,69.1,43,29.67,5.0,SE,10.4,21.9,N/A,,Haze,140,2013-05-21 21:35:00
4:55 PM,95.2,68.7,42,29.67,5.0,SSE,15.0,19.6,N/A,,Haze,150,2013-05-21 21:55:00
5:15 PM,95.2,68.0,41,29.67,5.0,South,13.8,21.9,N/A,,Haze,170,2013-05-21 22:15:00
5:35 PM,94.8,69.1,43,29.67,5.0,SSE,12.7,-,N/A,,Haze,160,2013-05-21 22:35:00
5:55 PM,93.6,69.1,45,29.67,4.0,SSE,11.5,19.6,N/A,,Haze,160,2013-05-21 22:55:00
6:15 PM,91.9,69.8,48,29.67,5.0,SSE,12.7,19.6,N/A,,Haze,160,2013-05-21 23:15:00
6:35 PM,91.4,70.3,50,29.67,5.0,SE,11.5,16.1,N/A,,Haze,140,2013-05-21 23:35:00
6:55 PM,90.5,70.0,51,29.68,5.0,SE,12.7,-,N/A,,Haze,140,2013-05-21 23:55:00
7:15 PM,90.0,70.3,52,29.68,5.0,SE,12.7,-,N/A,,Haze,140,2013-05-22 00:15:00
7:35 PM,89.1,69.8,53,29.69,5.0,SE,10.4,-,N/A,,Haze,140,2013-05-22 00:35:00
7:55 PM,88.2,70.2,55,29.69,5.0,SE,10.4,-,N/A,,Haze,140,2013-05-22 00:55:00
8:15 PM,87.1,71.2,59,29.70,5.0,SE,6.9,-,N/A,,Haze,140,2013-05-22 01:15:00
8:35 PM,86.5,70.7,59,29.71,7.0,SE,9.2,-,N/A,,Clear,130,2013-05-22 01:35:00
8:55 PM,86.0,70.7,60,29.71,7.0,SE,9.2,-,N/A,,Clear,130,2013-05-22 01:55:00
9:15 PM,85.8,70.7,60,29.71,5.0,SE,8.1,-,N/A,,Haze,140,2013-05-22 02:15:00
9:35 PM,85.3,70.7,62,29.72,7.0,SE,6.9,-,N/A,,Clear,140,2013-05-22 02:35:00
9:55 PM,84.7,71.1,63,29.72,7.0,SE,9.2,-,N/A,,Clear,140,2013-05-22 02:55:00
10:15 PM,84.4,71.6,65,29.73,7.0,SE,10.4,-,N/A,,Clear,140,2013-05-22 03:15:00
10:35 PM,83.8,71.8,67,29.73,7.0,SE,10.4,-,N/A,,Clear,140,2013-05-22 03:35:00
10:55 PM,83.3,72.1,69,29.74,7.0,SSE,8.1,-,N/A,,Clear,150,2013-05-22 03:55:00
11:15 PM,82.8,72.9,72,29.74,7.0,SE,10.4,-,N/A,,Clear,140,2013-05-22 04:15:00
11:35 PM,82.0,73.4,75,29.74,7.0,SSE,8.1,-,N/A,,Clear,150,2013-05-22 04:35:00
11:55 PM,81.3,73.6,77,29.74,5.0,SE,8.1,-,N/A,,Haze,130,2013-05-22 04:55:00